sat.trackr.live / text

‹ back to catalog

SONATE-2

NORAD 59112 · 2024-043Q

PAYLOAD ACTIVE UNKNOWN

§ Identity

Operator
Country
GER
Launch date
2024-03-04
Launch site
AFWTR
Launch vehicle
Mass (kg)
RCS (m²)

Purposes: comms

External: N2YO · Heavens-Above · Gunter

§ Orbital elements

Epoch: 2026-05-25T03:24:52.897824Z

Period
92.49 min
Inclination
97.5510°
Eccentricity
0.0005850
Mean motion
15.56848979 rev/d
Perigee alt
392.8 km
Apogee alt
400.7 km
Semi-major
6,774.9 km
B*
5.2297e-4
RAAN
294.1608°
Arg perigee
279.7869°
Mean anomaly
80.2725°
Rev number
12,430

§ Raw data

SONATE-21 59112U 24043Q   26145.14227891  .00037565  00000+0  52297-3 0  99962 59112  97.5510 294.1608 0005850 279.7869  80.2725 15.56848979124309

JSON: /api/v1/satellites/59112 · /tle

For live sub-satellite position, see the globe view (requires WebGL).

§ Visibility from observer

Set your observer location to see the next 7 days of passes ≥ 10°. The values pass through the URL so the page stays shareable.

No JS? Fill the form by hand. The geolocation button needs JavaScript.

§ Radio — SatNOGS DB

ModeDescriptionDownlinkUplink
QPSK Mode S - QPSK 2.048 Msps - CCSDS 131.0-B Convolutional code k=7, r=0.5, randomizer on 2.268 GHz
GMSK Mode U - GMSK9k6 - AX.25 G3RUH - Telemetry 437.025 MHz
CW Mode V - CW 145.840 MHz
SSTV Mode V - SSTV - Martin M1 SSTV 145.880 MHz
AFSK Mode V/V - APRS digipeater 145.825 MHz 145.825 MHz

5 transmitters · refreshed weekly from db.satnogs.org